Aswan, Egypt

5:28 AM EET on August 28, 2016 (GMT +0200)
Aswan International

Weather History for HESN - November, 2012

Change the Weather History Date:

Sunday, November 18, 2012

  Actual Average Record
Temperature  
Mean Temperature 76 °F -  
Max Temperature 90 °F 77 °F 95 °F (2010)
Min Temperature 61 °F 55 °F 55 °F (2011)
Cooling Degree Days 10    
Growing Degree Days 26 (Base 50)    
Moisture  
Dew Point 39 °F    
Average Humidity 26    
Maximum Humidity 45    
Minimum Humidity 9    
Precipitation  
Precipitation 0.00 in 0.00 in - ()
Sea Level Pressure  
Sea Level Pressure 29.96 in    
Wind  
Wind Speed 4 mph ()    
Max Wind Speed 12 mph    
Max Gust Speed -    
Visibility 6.0 miles    
Events      
Averages and records for this station are not official NWS values.
T = Trace of Precipitation, MM = Missing Value Source: Averaged Metar Reports

Daily Weather History Graph

Daily Weather History Graph

Search for Another Location

Airport or City:

Trip Planner

Search our weather history database for the weather conditions in past years. The results will help you decide how hot, cold, wet, or windy it might be!

Date:

Astronomy

Nov. 18, 2012 Rise Set
Actual Time 6:05 AM EET 5:01 PM EET
Civil Twilight 5:41 AM EET 5:25 PM EET
Nautical Twilight 5:14 AM EET 5:53 PM EET
Astronomical Twilight 4:47 AM EET 6:20 PM EET
Moon 10:23 AM EET (11/18) 9:51 PM EET (11/18)
Length of Visible Light 11h 44m
Length of Day
10h 56m
Waxing Crescent, 27% of the Moon is Illuminated
Nov 18
Waxing Crescent
Nov 20
First Quarter
Nov 28
Full
Dec 6
Last Quarter
Dec 13
New

Hourly Weather History & Observations

Time (EET) Temp. Dew Point Humidity Pressure Visibility Wind Dir Wind Speed Gust Speed Precip Events Conditions
12:00 AM 69.8 °F 37.4 °F 31% 29.95 in - NW 4.6 mph - N/A   Clear
1:00 AM 68.0 °F 39.2 °F 35% 29.95 in - WNW 4.6 mph - N/A   Clear
2:00 AM 67 °F 40 °F 26% 29.92 in 6 mi WNW 6.9 mph - -  
2:00 AM 68.0 °F 41.0 °F 37% 29.92 in - WNW 6.9 mph - N/A   Clear
3:00 AM 66.2 °F 39.2 °F 37% 29.92 in - NW 5.8 mph - N/A   Clear
4:00 AM 64.4 °F 39.2 °F 40% 29.92 in - NW 5.8 mph - N/A   Clear
6:00 AM 62.6 °F 41.0 °F 45% 29.95 in - Calm Calm - N/A   Clear
7:00 AM 62.6 °F 41.0 °F 45% 29.98 in - Calm Calm - N/A   Clear
8:00 AM 71 °F 43 °F 25% 29.99 in 6 mi Calm Calm - -  
8:00 AM 71.6 °F 42.8 °F 35% 30.01 in - Calm Calm - N/A   Clear
9:00 AM 73.4 °F 42.8 °F 33% 30.01 in - WNW 4.6 mph - N/A   Clear
10:00 AM 78.8 °F 44.6 °F 30% 30.01 in - WNW 4.6 mph - N/A   Clear
11:00 AM 82.4 °F 44.6 °F 26% 29.98 in - Calm Calm - N/A   Clear
12:00 PM 84.2 °F 42.8 °F 23% 29.98 in - West 4.6 mph - N/A   Clear
1:00 PM 87.8 °F 41.0 °F 19% 29.95 in - West 4.6 mph - N/A   Clear
2:00 PM 88 °F 38 °F 9% 29.90 in 6 mi WNW 4.6 mph - -  
2:00 PM 87.8 °F 37.4 °F 17% 29.92 in - WNW 4.6 mph - N/A   Clear
3:00 PM 89.6 °F 39.2 °F 17% 29.92 in - NW 6.9 mph - N/A   Clear
4:00 PM 89.6 °F 35.6 °F 15% 29.92 in - West 9.2 mph - N/A   Clear
5:00 PM 86.0 °F 35.6 °F 17% 29.92 in - West 11.5 mph - N/A   Clear
6:00 PM 82.4 °F 35.6 °F 19% 29.95 in - WNW 9.2 mph - N/A   Clear
7:00 PM 78.8 °F 37.4 °F 23% 29.95 in - NW 8.1 mph - N/A   Clear
8:00 PM 77 °F 36 °F 13% 29.96 in 6 mi WNW 8.1 mph - -  
8:00 PM 77.0 °F 35.6 °F 22% 29.98 in - WNW 8.1 mph - N/A   Clear
9:00 PM 75.2 °F 33.8 °F 22% 29.98 in - WNW 6.9 mph - N/A   Clear
10:00 PM 73.4 °F 33.8 °F 23% 30.01 in - NNW 6.9 mph - N/A   Clear
11:00 PM 69.8 °F 33.8 °F 27% 30.01 in - NW 5.8 mph - N/A   Clear